Location: Mt. Chestnut Observatory
(40.9038°N, 79.9956°W)
Time: 17:58:43
(UTC-04:00)

Daily predictions for brighter satellites

Satellite Brightness Start Highest point End
(mag) Time Altitude Azimuth Time Altitude Azimuth Time Altitude Azimuth
Lacrosse 5 rocket 2.6 20:27:00 10° NNW 20:30:05 23° NNE 20:33:04 10° E
Cosmos 1315 Rocket 3.3 20:27:56 10° SSW 20:31:54 69° W 20:35:58 10° N
ERS-1 Rocket 4.3 20:28:53 10° ESE 20:32:40 22° ENE 20:36:28 10° NNE
ALOS 2.4 20:28:21 10° SSE 20:32:55 57° ENE 20:37:31 10° N
Cosmos 1892 Rocket 3.7 20:28:58 10° N 20:33:25 61° E 20:37:51 10° SSE
Cosmos 1809 Rocket 4.5 20:27:45 10° S 20:33:54 85° E 20:40:05 10° N
Cosmos 1025 Rocket 3.2 20:30:22 10° N 20:34:45 80° W 20:39:05 10° S
Cosmos 1455 Rocket 3.3 20:34:36 10° SSE 20:38:44 46° E 20:42:55 10° NNE
Cosmos 2369 4.1 20:33:44 10° S 20:39:00 42° ESE 20:44:19 10° NE
H-2A R/B 3.0 20:35:27 10° SSE 20:39:11 50° ENE 20:43:00 10° N
Resurs 1-3 3.9 20:34:54 10° S 20:39:16 71° WSW 20:43:40 10° NNW
NOSS 2-1 (E) 3.5 20:36:41 10° SW 20:40:34 82° NW 20:45:03 10° NNE
Cosmos 1461 3.5 20:37:17 10° NNW 20:41:07 38° NE 20:44:43 11° ESE
Meteor 1-23 Rocket 4.3 20:37:03 10° N 20:42:43 89° ENE 20:48:26 10° S
Meteor 1-29 4.3 20:40:08 10° N 20:43:27 44° WNW 20:46:45 10° SSW
Cosmos 1980 Rocket 3.9 20:45:16 10° ESE 20:46:12 11° E 20:47:21 10° E
Cosmos 1633 4.1 20:48:02 10° SSW 20:51:29 40° W 20:54:58 10° N
Centaur D-1A AC-32 4.3 20:50:49 10° SSW 20:51:43 11° SSW 20:52:31 10° S
Cosmos 1939 Rocket 4.2 20:51:42 13° ESE 20:54:24 24° ENE 20:57:44 10° NNE
CZ-2D R/B 3.3 20:52:06 10° SSE 20:55:57 89° W 20:59:52 10° NNW
Lacrosse 5 3.4 20:52:03 10° NNW 20:56:10 24° NNE 21:00:14 10° E
Resurs 01 Rocket 3.4 20:52:22 10° SSW 20:56:25 35° W 21:00:29 10° NNW
Cosmos 1934 Rocket 4.0 20:50:31 10° S 20:56:37 86° E 21:02:52 10° N
ATLAS CENTAUR R/B 4.5 20:55:12 10° W 20:59:09 23° NW 21:03:02 10° N
Hubble Space Telescope 3.1 20:59:13 10° SSW 21:00:39 12° SSW 21:02:05 10° S
SPOT 5 4.4 21:02:07 15° ESE 21:04:37 21° ENE 21:08:14 10° NNE
EP 1 4.2 21:07:21 10° SW 21:09:50 78° NW 21:12:26 10° NNE
Cosmos 1346 Rocket 3.0 21:06:44 10° NNW 21:10:40 72° W 21:14:37 10° S
Cosmos 1544 Rocket 4.5 21:08:15 10° SSW 21:12:30 51° W 21:16:49 10° N
Cosmos 2227 Rocket 2.2 21:07:32 10° NNW 21:13:14 83° ENE 21:18:21 13° SSE
USA 186 2.2 21:10:50 10° S 21:13:55 58° W 21:16:50 10° NNW
FENGYUN 3A 4.2 21:09:13 10° S 21:14:29 61° W 21:19:48 10° NNW
Tiangong 1 1.4 21:11:28 10° W 21:14:32 59° N 21:16:25 21° ENE
OTV 4 1.2 21:13:00 10° W 21:15:48 37° S 21:16:45 28° SSE
Cosmos 2208 Rocket 4.4 21:12:46 10° SSW 21:18:03 70° WNW 21:23:27 10° NNE
Cosmos 1656 3.8 21:14:52 10° S 21:20:17 51° ESE 21:25:41 10° NNE
Cosmos 1500 3.6 21:18:30 21° SSE 21:20:31 39° E 21:24:03 10° NNE
NOSS 3-4 (A) 4.1 21:14:06 10° NW 21:21:06 71° WSW 21:28:01 12° SSE
RESURS DK-1 3.9 21:17:57 10° N 21:21:09 21° NE 21:22:21 19° ENE
NOSS 3-4 (C) 4.0 21:14:12 10° NW 21:21:14 71° WSW 21:28:05 12° SSE
BREEZE-M TANK 3.6 21:09:06 10° WNW 21:22:23 73° NNE 21:24:55 23° E
Cosmos 2298 Rocket 4.3 21:20:21 10° N 21:25:32 50° ENE 21:28:25 25° SE
Cosmos 2082 3.7 21:21:01 10° NNW 21:26:40 82° WSW 21:31:16 16° SSE
CZ-4 DEB 2.6 21:26:39 28° SSE 21:28:11 84° ENE 21:31:20 10° N
Cosmos 2297 Rocket 2.1 21:23:14 10° NNW 21:28:55 81° ENE 21:32:48 21° SSE
Cosmos 1340 4.1 21:32:08 10° NNE 21:34:56 22° ENE 21:34:56 22° ENE
Envisat 3.0 21:34:13 24° SSE 21:37:15 66° ENE 21:42:18 10° N
Cosmos 2173 Rocket 4.2 21:32:57 15° SSE 21:38:07 51° E 21:44:14 10° NNE
Milstar 3 Cent rocket 4.5 21:18:13 10° WSW 21:39:04 50° S 21:45:56 25° SE
H-2A R/B 4.0 21:39:12 12° ENE 21:39:38 12° ENE 21:41:37 10° NE
Cosmos 1937 Rocket 3.9 21:36:47 10° N 21:41:51 46° ENE 21:43:40 33° ESE
SJ-11-01 4.4 21:38:17 17° S 21:41:52 77° W 21:46:34 10° NNW
Cosmos 1515 3.6 21:39:27 10° N 21:43:19 88° W 21:44:57 33° S
Terra 4.1 21:44:43 10° ENE 21:44:45 10° ENE 21:45:35 10° NE
ASTEX 1 4.0 21:41:10 10° NNE 21:45:47 37° E 21:46:26 35° ESE
OAO 2 Rocket 3.8 21:42:51 10° WSW 21:47:34 41° S 21:48:33 37° SE
Cosmos 2100 Rocket 3.9 21:42:26 11° S 21:48:26 67° E 21:54:38 10° NNE
YAOGAN 6 3.5 21:49:35 34° ENE 21:49:35 34° ENE 21:52:38 10° N
Cosmos 2061 Rocket 4.0 21:44:13 16° S 21:49:15 61° E 21:55:26 10° NNE
Cosmos 2150 Rocket 3.9 21:47:15 10° NNW 21:52:26 76° ENE 21:54:22 39° SSE
Iridium 4 Rocket 3.8 21:47:36 10° N 21:52:42 62° W 21:56:49 13° SSW
Cosmos 1743 2.8 21:53:16 54° E 21:53:16 54° E 21:57:03 10° NNE
Cosmos 1825 Rocket 3.7 21:50:32 10° N 21:54:53 52° E 21:55:22 49° ESE
Cosmos 972 Rocket 4.4 21:50:37 10° NNW 21:56:30 70° ENE 21:59:20 35° SSE
MetOp-A 4.2 21:55:02 40° SE 21:56:44 58° ENE 22:02:00 10° N
Cosmos 990 Rocket 4.4 21:52:40 10° N 21:57:45 46° ENE 21:58:46 41° E
Cosmos 1975 4.1 21:53:54 10° SSW 21:57:47 42° WNW 22:01:43 10° N
SPOT 1/Viking Rocket 4.1 21:57:13 36° E 21:58:04 38° ENE 22:02:52 10° N
DELTA 2 R/B (1) 3.6 21:53:21 10° W 21:58:51 64° SSW 22:00:24 45° SE
Cosmos 1066 Rocket 4.2 21:54:35 10° N 22:00:15 85° W 22:03:26 28° S
Cosmos 1953 Rocket 3.9 21:59:29 10° N 22:03:44 47° ENE 22:03:44 47° ENE
Cosmos 1697 Rocket 2.6 22:01:30 10° SSW 22:07:10 88° WNW 22:12:51 10° NNE
H-2A R/B 1.9 22:06:31 61° S 22:07:11 82° WSW 22:11:20 10° NNW
Lacrosse 5 rocket 1.8 22:05:57 10° WNW 22:09:24 41° SW 22:09:24 41° SW
ERS-1 Rocket 3.9 22:07:45 18° SSW 22:11:08 44° W 22:15:57 10° NNW
SL-16 R/B 4.3 22:15:31 13° ENE 22:15:31 13° ENE 22:16:15 10° NE
NOAA 11 4.3 22:15:11 50° E 22:15:52 53° ENE 22:21:11 10° N
deb Chang Zheng 4 3.9 22:11:47 10° N 22:16:14 69° WNW 22:18:17 31° SSW
Cosmos 1898 Rocket 3.8 22:12:08 10° NNW 22:17:23 61° WSW 22:19:08 39° SSW
Cosmos 1758 Rocket 3.8 22:18:36 10° N 22:22:20 57° NE 22:22:20 57° NE
Cosmos 1725 Rocket 4.0 22:22:45 53° ESE 22:23:23 55° E 22:29:27 10° NNE
Cosmos 1125 Rocket 4.5 22:18:49 10° N 22:23:14 32° ENE 22:23:14 32° ENE
Cosmos 1763 Rocket 3.3 22:24:17 68° E 22:24:17 68° E 22:29:08 10° NNE
Cosmos 1459 Rocket 4.2 22:21:24 16° SSW 22:26:17 66° W 22:32:23 10° N
Cosmos 1980 Rocket 2.1 22:26:52 37° SSW 22:29:15 86° ESE 22:34:59 10° NNE
Meteor 1-15 Rocket 4.4 22:30:17 55° E 22:30:17 55° E 22:35:50 10° NNE
ARGOS 3.0 22:30:52 69° E 22:31:10 71° ENE 22:36:32 10° N
BREEZE-M DEB (TANK) 4.5 22:29:50 10° NW 22:34:15 75° NNE 22:38:48 38° ESE
Lacrosse 5 1.8 22:34:34 10° NW 22:39:26 79° W 22:39:26 79° W
SPOT 5 3.7 22:41:21 41° SW 22:42:23 47° W 22:47:06 10° NNW
Cosmos 2058 Rocket 3.7 22:44:37 51° N 22:44:37 51° N 22:48:03 10° N
Cosmos 841 Rocket 3.5 22:45:04 79° N 22:45:04 79° N 22:50:00 10° NNE
USA 215 3.5 22:44:53 50° E 22:46:19 61° NE 22:52:45 10° NW
BREEZE-M DEB (TANK) 4.1 22:34:54 10° SW 22:48:37 70° SSE 22:49:08 67° ESE
Cosmos 2233 Rocket 4.3 22:51:56 52° ENE 22:51:56 52° ENE 22:57:11 10° NNE
Tiangong 1 4.3 22:48:05 10° WNW 22:48:23 12° WNW 22:48:23 12° WNW
Cosmos 2263 Rocket 3.4 22:54:01 10° N 22:58:15 31° NE 22:58:15 31° NE
RESURS DK-1 4.1 22:55:32 10° NW 22:58:17 29° WNW 22:58:17 29° WNW
Cosmos 2322 Rocket 3.4 23:03:22 30° NE 23:03:22 30° NE 23:06:13 10° NNE
Cosmos 2360 4.4 23:06:40 66° W 23:06:57 68° WNW 23:12:41 10° NNE
H-2A R/B 2.8 23:19:52 47° NNW 23:19:52 47° NNW 23:23:22 10° NNW
BREEZE-M DEB (TANK) 3.7 23:02:25 10° WNW 23:18:25 73° NNE 23:18:46 71° NE
Terra 3.1 23:23:37 37° NNW 23:23:37 37° NNW 23:26:31 10° NNW
GEOS 3 Rocket 4.5 23:26:22 10° NNE 23:30:25 45° NNW 23:30:25 45° NNW
